Weather History for St. Johns, AZ

Change the Weather History Date:

Wednesday, September 11, 2013

  Actual Average (KSOW) Record (KSOW)
Temperature  
Mean Temperature 54 °F -  
Max Temperature 60 °F 75 °F 89 °F (1971)
Min Temperature 47 °F 55 °F 38 °F (1986)
Degree Days  
Heating Degree Days 12    
Growing Degree Days 4 (Base 50)    
Moisture  
Dew Point 51 °F    
Average Humidity 68    
Maximum Humidity 95    
Minimum Humidity 40    
Precipitation  
Precipitation 0.31 in - - ()
Sea Level Pressure  
Sea Level Pressure 29.95 in    
Wind  
Wind Speed 2 mph (West)    
Max Wind Speed 9 mph    
Max Gust Speed -    
Visibility 10 miles    
Events Rain    
Averages and records for this station are not official NWS values.
T = Trace of Precipitation, MM = Missing Value Source: NWS Daily Summary

Daily Weather History Graph

Daily Weather History Graph

Search for Another Location

Airport:

Trip Planner

Search our weather history database for the weather conditions in past years. The results will help you decide how hot, cold, wet, or windy it might be!

Date:

Astronomy

Sep. 11, 2013 Rise Set
Actual Time 5:57 AM MST 6:29 PM MST
Civil Twilight 5:32 AM MST 6:54 PM MST
Nautical Twilight 5:02 AM MST 7:24 PM MST
Astronomical Twilight 4:32 AM MST 7:54 PM MST
Moon 12:13 PM MST (9/11) 10:44 PM MST (9/11)
Length of Visible Light 13h 22m
Length of Day
12h 31m
Waxing Crescent, 40% of the Moon is Illuminated
Sep 11
Waxing Crescent
Sep 12
First Quarter
Sep 19
Full
Sep 26
Last Quarter
Oct 4
New

Hourly Weather History & Observations

Time (MST) Temp. Dew Point Humidity Pressure Visibility Wind Dir Wind Speed Gust Speed Precip Events Conditions
12:54 AM 57.9 °F 53.1 °F 84% 29.93 in 10.0 mi Calm Calm - N/A   Partly Cloudy
1:54 AM 55.9 °F 53.1 °F 90% 29.92 in 10.0 mi Calm Calm - N/A   Clear
2:54 AM 55.0 °F 52.0 °F 89% 29.92 in 10.0 mi Calm Calm - N/A   Clear
3:54 AM 53.1 °F 51.1 °F 93% 29.94 in 10.0 mi Calm Calm - N/A   Clear
4:54 AM 53.1 °F 50.0 °F 89% 29.96 in 10.0 mi Calm Calm - N/A   Clear
5:54 AM 52.0 °F 48.9 °F 89% 29.96 in 10.0 mi Calm Calm - N/A   Clear
6:54 AM 54.0 °F 51.1 °F 90% 29.98 in 10.0 mi South 3.5 mph - N/A   Clear
7:54 AM 59.0 °F 52.0 °F 78% 29.99 in 10.0 mi Calm Calm - N/A   Clear
8:54 AM 64.9 °F 53.1 °F 65% 29.99 in 10.0 mi Calm Calm - N/A   Clear
9:54 AM 68.0 °F 53.1 °F 59% 29.99 in 10.0 mi Calm Calm - N/A   Clear
10:54 AM 72.0 °F 51.1 °F 48% 29.97 in 10.0 mi Variable 5.8 mph - N/A   Clear
11:54 AM 72.0 °F 52.0 °F 49% 29.96 in 10.0 mi WSW 6.9 mph - N/A   Partly Cloudy
12:54 PM 73.9 °F 52.0 °F 46% 29.94 in 10.0 mi ENE 6.9 mph - N/A   Partly Cloudy
1:54 PM 73.0 °F 52.0 °F 48% 29.93 in 10.0 mi NNW 6.9 mph - N/A   Partly Cloudy
2:54 PM 75.0 °F 51.1 °F 43% 29.91 in 10.0 mi Variable 5.8 mph - N/A   Clear
3:54 PM 77.0 °F 51.1 °F 40% 29.90 in 10.0 mi NNW 5.8 mph - N/A   Mostly Cloudy
4:54 PM 73.9 °F 48.0 °F 40% 29.90 in 10.0 mi West 6.9 mph - N/A   Clear
5:54 PM 73.0 °F 48.9 °F 42% 29.91 in 10.0 mi North 4.6 mph - N/A   Scattered Clouds
6:54 PM 71.1 °F 50.0 °F 47% 29.91 in 10.0 mi Calm Calm - N/A   Partly Cloudy
7:54 PM 64.9 °F 55.0 °F 70% 29.94 in 10.0 mi West 3.5 mph - N/A   Clear
8:54 PM 64.0 °F 53.1 °F 67% 29.93 in 10.0 mi West 4.6 mph - N/A   Clear
9:54 PM 64.0 °F 52.0 °F 65% 29.94 in 10.0 mi SW 4.6 mph - N/A   Mostly Cloudy
10:54 PM 61.0 °F 52.0 °F 72% 29.94 in 10.0 mi West 6.9 mph - N/A   Clear
11:54 PM 60.1 °F 52.0 °F 75% 29.95 in 10.0 mi South 4.6 mph - N/A   Partly Cloudy